Year,Month,Day,Hour,Minute,Value (Times are PST for windspeed in km/hr)
2008,06,08,00,00,6.80
2008,06,08,00,01,8.70
2008,06,08,00,02,6.70
2008,06,08,00,03,11.70
2008,06,08,00,04,7.60
2008,06,08,00,05,8.60
2008,06,08,00,06,10.90
2008,06,08,00,07,6.50
2008,06,08,00,08,9.20
2008,06,08,00,09,9.80
2008,06,08,00,10,13.60
2008,06,08,00,11,7.40
2008,06,08,00,12,9.40
2008,06,08,00,13,10.60
2008,06,08,00,14,8.20
2008,06,08,00,15,8.00
2008,06,08,00,16,9.20
2008,06,08,00,17,9.20
2008,06,08,00,18,6.70
2008,06,08,00,19,7.30
2008,06,08,00,20,10.10
2008,06,08,00,21,14.40
2008,06,08,00,22,8.70
2008,06,08,00,23,11.20
2008,06,08,00,24,13.50
2008,06,08,00,25,10.30
2008,06,08,00,26,9.30
2008,06,08,00,27,9.70
2008,06,08,00,28,9.10
2008,06,08,00,29,7.90
2008,06,08,00,30,12.70
2008,06,08,00,31,13.80
2008,06,08,00,32,10.60
2008,06,08,00,33,11.90
2008,06,08,00,34,15.20
2008,06,08,00,35,18.10
2008,06,08,00,36,11.70
2008,06,08,00,37,12.60
2008,06,08,00,38,13.50
2008,06,08,00,39,11.90
2008,06,08,00,40,12.70
2008,06,08,00,41,9.60
2008,06,08,00,42,10.60
2008,06,08,00,43,10.40
2008,06,08,00,44,9.80
2008,06,08,00,45,16.50
2008,06,08,00,46,7.40
2008,06,08,00,47,11.90
2008,06,08,00,48,13.50
2008,06,08,00,49,9.00
2008,06,08,00,50,9.10
2008,06,08,00,51,10.30
2008,06,08,00,52,10.70
2008,06,08,00,53,8.70
2008,06,08,00,54,5.30
2008,06,08,00,55,9.80
2008,06,08,00,56,9.80
2008,06,08,00,57,9.10
2008,06,08,00,58,11.70
2008,06,08,00,59,6.60
2008,06,08,01,00,10.60
2008,06,08,01,01,11.90
2008,06,08,01,02,9.20
2008,06,08,01,03,10.20
2008,06,08,01,04,8.20
2008,06,08,01,05,13.50
2008,06,08,01,06,11.60
2008,06,08,01,07,10.20
2008,06,08,01,08,4.90
2008,06,08,01,09,17.50
2008,06,08,01,10,14.40
2008,06,08,01,11,14.80
2008,06,08,01,12,13.80
2008,06,08,01,13,10.00
2008,06,08,01,14,12.30
2008,06,08,01,15,11.40
2008,06,08,01,16,12.30
2008,06,08,01,17,8.20
2008,06,08,01,18,9.10
2008,06,08,01,19,8.20
2008,06,08,01,20,7.30
2008,06,08,01,21,6.80
2008,06,08,01,22,8.10
2008,06,08,01,23,14.30
2008,06,08,01,24,11.70
2008,06,08,01,25,14.30
2008,06,08,01,26,10.60
2008,06,08,01,27,13.10
2008,06,08,01,28,10.00
2008,06,08,01,29,8.90
2008,06,08,01,30,13.40
2008,06,08,01,31,15.80
2008,06,08,01,32,9.20
2008,06,08,01,33,13.50
2008,06,08,01,34,11.90
2008,06,08,01,35,11.10
2008,06,08,01,36,10.40
2008,06,08,01,37,14.80
2008,06,08,01,38,8.00
2008,06,08,01,39,8.80
2008,06,08,01,40,12.20
2008,06,08,01,41,8.30
2008,06,08,01,42,13.30
2008,06,08,01,43,13.90
2008,06,08,01,44,10.80
2008,06,08,01,45,8.70
2008,06,08,01,46,10.40
2008,06,08,01,47,9.40
2008,06,08,01,48,6.00
2008,06,08,01,49,12.60
2008,06,08,01,50,13.90
2008,06,08,01,51,12.40
2008,06,08,01,52,13.00
2008,06,08,01,53,11.50
2008,06,08,01,54,13.00
2008,06,08,01,55,18.70
2008,06,08,01,56,13.20
2008,06,08,01,57,10.90
2008,06,08,01,58,16.00
2008,06,08,01,59,13.50
2008,06,08,02,00,10.00
2008,06,08,02,01,8.10
2008,06,08,02,02,12.00
2008,06,08,02,03,12.50
2008,06,08,02,04,12.30
2008,06,08,02,05,11.50
2008,06,08,02,06,13.00
2008,06,08,02,07,9.10
2008,06,08,02,08,10.30
2008,06,08,02,09,12.70
2008,06,08,02,10,12.50
2008,06,08,02,11,18.50
2008,06,08,02,12,12.50
2008,06,08,02,13,10.80
2008,06,08,02,14,10.70
2008,06,08,02,15,14.20
2008,06,08,02,16,15.70
2008,06,08,02,17,9.50
2008,06,08,02,18,11.90
2008,06,08,02,19,14.40
2008,06,08,02,20,11.20
2008,06,08,02,21,11.40
2008,06,08,02,22,9.80
2008,06,08,02,23,8.10
2008,06,08,02,24,7.00
2008,06,08,02,25,5.90
2008,06,08,02,26,14.00
2008,06,08,02,27,8.70
2008,06,08,02,28,7.00
2008,06,08,02,29,7.60
2008,06,08,02,30,16.30
2008,06,08,02,31,13.20
2008,06,08,02,32,11.50
2008,06,08,02,33,8.90
2008,06,08,02,34,11.30
2008,06,08,02,35,5.50
2008,06,08,02,36,13.70
2008,06,08,02,37,9.40
2008,06,08,02,38,10.20
2008,06,08,02,39,14.20
2008,06,08,02,40,13.00
2008,06,08,02,41,10.80
2008,06,08,02,42,15.20
2008,06,08,02,43,15.50
2008,06,08,02,44,10.00
2008,06,08,02,45,11.70
2008,06,08,02,46,9.90
2008,06,08,02,47,15.30
2008,06,08,02,48,11.00
2008,06,08,02,49,11.20
2008,06,08,02,50,11.80
2008,06,08,02,51,12.60
2008,06,08,02,52,14.60
2008,06,08,02,53,9.30
2008,06,08,02,54,8.00
2008,06,08,02,55,12.10
2008,06,08,02,56,12.60
2008,06,08,02,57,9.20
2008,06,08,02,58,9.60
2008,06,08,02,59,13.00
2008,06,08,03,00,12.00
2008,06,08,03,01,13.00
2008,06,08,03,02,11.90
2008,06,08,03,03,12.30
2008,06,08,03,04,9.20
2008,06,08,03,05,16.70
2008,06,08,03,06,14.00
2008,06,08,03,07,8.60
2008,06,08,03,08,7.10
2008,06,08,03,09,10.00
2008,06,08,03,10,8.20
2008,06,08,03,11,7.90
2008,06,08,03,12,9.40
2008,06,08,03,13,13.10
2008,06,08,03,14,15.50
2008,06,08,03,15,7.70
2008,06,08,03,16,13.10
2008,06,08,03,17,13.20
2008,06,08,03,18,8.50
2008,06,08,03,19,7.10
2008,06,08,03,20,10.20
2008,06,08,03,21,9.40
2008,06,08,03,22,6.30
2008,06,08,03,23,7.40
2008,06,08,03,24,7.30
2008,06,08,03,25,8.00
2008,06,08,03,26,8.60
2008,06,08,03,27,10.80
2008,06,08,03,28,11.30
2008,06,08,03,29,6.60
2008,06,08,03,30,11.40
2008,06,08,03,31,4.70
2008,06,08,03,32,7.20
2008,06,08,03,33,3.90
2008,06,08,03,34,10.90
2008,06,08,03,35,8.90
2008,06,08,03,36,15.20
2008,06,08,03,37,6.90
2008,06,08,03,38,5.20
2008,06,08,03,39,8.50
2008,06,08,03,40,7.40
2008,06,08,03,41,12.60
2008,06,08,03,42,5.30
2008,06,08,03,43,5.30
2008,06,08,03,44,3.80
2008,06,08,03,45,14.20
2008,06,08,03,46,9.60
2008,06,08,03,47,9.50
2008,06,08,03,48,7.80
2008,06,08,03,49,6.30
2008,06,08,03,50,14.70
2008,06,08,03,51,8.30
2008,06,08,03,52,13.20
2008,06,08,03,53,8.10
2008,06,08,03,54,10.50
2008,06,08,03,55,12.60
2008,06,08,03,56,7.20
2008,06,08,03,57,13.00
2008,06,08,03,58,8.90
2008,06,08,03,59,7.30
2008,06,08,04,00,11.90
2008,06,08,04,01,9.90
2008,06,08,04,02,9.30
2008,06,08,04,03,9.20
2008,06,08,04,04,14.20
2008,06,08,04,05,12.10
2008,06,08,04,06,8.30
2008,06,08,04,07,5.30
2008,06,08,04,08,8.60
2008,06,08,04,09,7.00
2008,06,08,04,10,8.20
2008,06,08,04,11,12.40
2008,06,08,04,12,8.10
2008,06,08,04,13,13.80
2008,06,08,04,14,9.90
2008,06,08,04,15,8.00
2008,06,08,04,16,7.40
2008,06,08,04,17,8.40
2008,06,08,04,18,8.20
2008,06,08,04,19,14.90
2008,06,08,04,20,8.50
2008,06,08,04,21,8.10
2008,06,08,04,22,6.40
2008,06,08,04,23,10.70
2008,06,08,04,24,12.40
2008,06,08,04,25,7.00
2008,06,08,04,26,12.50
2008,06,08,04,27,6.10
2008,06,08,04,28,10.20
2008,06,08,04,29,15.20
2008,06,08,04,30,11.00
2008,06,08,04,31,7.70
2008,06,08,04,32,9.20
2008,06,08,04,33,6.90
2008,06,08,04,34,9.60
2008,06,08,04,35,7.50
2008,06,08,04,36,11.70
2008,06,08,04,37,7.30
2008,06,08,04,38,10.90
2008,06,08,04,39,5.90
2008,06,08,04,40,12.00
2008,06,08,04,41,10.00
2008,06,08,04,42,14.30
2008,06,08,04,43,8.90
2008,06,08,04,44,8.10
2008,06,08,04,45,6.10
2008,06,08,04,46,8.40
2008,06,08,04,47,9.50
2008,06,08,04,48,12.80
2008,06,08,04,49,9.30
2008,06,08,04,50,6.00
2008,06,08,04,51,13.40
2008,06,08,04,52,9.40
2008,06,08,04,53,10.10
2008,06,08,04,54,12.20
2008,06,08,04,55,10.30
2008,06,08,04,56,11.90
2008,06,08,04,57,10.80
2008,06,08,04,58,13.60
2008,06,08,04,59,8.50
2008,06,08,05,00,9.70
2008,06,08,05,01,9.10
2008,06,08,05,02,10.10
2008,06,08,05,03,10.50
2008,06,08,05,04,15.50
2008,06,08,05,05,11.40
2008,06,08,05,06,8.10
2008,06,08,05,07,10.90
2008,06,08,05,08,9.00
2008,06,08,05,09,8.00
2008,06,08,05,10,9.90
2008,06,08,05,11,9.10
2008,06,08,05,12,6.50
2008,06,08,05,13,8.40
2008,06,08,05,14,8.00
2008,06,08,05,15,13.00
2008,06,08,05,16,10.10
2008,06,08,05,17,8.40
2008,06,08,05,18,6.20
2008,06,08,05,19,12.50
2008,06,08,05,20,5.00
2008,06,08,05,21,10.00
2008,06,08,05,22,10.10
2008,06,08,05,23,16.10
2008,06,08,05,24,10.90
2008,06,08,05,25,10.80
2008,06,08,05,26,7.30
2008,06,08,05,27,7.40
2008,06,08,05,28,5.80
2008,06,08,05,29,7.80
2008,06,08,05,30,8.90
2008,06,08,05,31,6.60
2008,06,08,05,32,12.70
2008,06,08,05,33,9.20
2008,06,08,05,34,7.00
2008,06,08,05,35,11.20
2008,06,08,05,36,6.40
2008,06,08,05,37,8.60
2008,06,08,05,38,8.40
2008,06,08,05,39,5.50
2008,06,08,05,40,11.90
2008,06,08,05,41,6.90
2008,06,08,05,42,11.70
2008,06,08,05,43,8.60
2008,06,08,05,44,10.90
2008,06,08,05,45,7.60
2008,06,08,05,46,6.30
2008,06,08,05,47,11.80
2008,06,08,05,48,7.10
2008,06,08,05,49,9.50
2008,06,08,05,50,10.30
2008,06,08,05,51,10.70
2008,06,08,05,52,7.10
2008,06,08,05,53,9.60
2008,06,08,05,54,7.60
2008,06,08,05,55,8.90
2008,06,08,05,56,4.60
2008,06,08,05,57,7.00
2008,06,08,05,58,6.30
2008,06,08,05,59,7.20
2008,06,08,06,00,10.20
2008,06,08,06,01,8.50
2008,06,08,06,02,6.10
2008,06,08,06,03,8.30
2008,06,08,06,04,10.00
2008,06,08,06,05,7.90
2008,06,08,06,06,6.20
2008,06,08,06,07,6.10
2008,06,08,06,08,5.50
2008,06,08,06,09,9.70
2008,06,08,06,10,7.60
2008,06,08,06,11,6.90
2008,06,08,06,12,6.40
2008,06,08,06,13,8.40
2008,06,08,06,14,9.40
2008,06,08,06,15,8.10
2008,06,08,06,16,9.60
2008,06,08,06,17,9.60
2008,06,08,06,18,6.00
2008,06,08,06,19,8.00
2008,06,08,06,20,7.60
2008,06,08,06,21,8.40
2008,06,08,06,22,9.70
2008,06,08,06,23,9.40
2008,06,08,06,24,6.80
2008,06,08,06,25,11.10
2008,06,08,06,26,10.30
2008,06,08,06,27,6.70
2008,06,08,06,28,7.50
2008,06,08,06,29,8.40
2008,06,08,06,30,6.80
2008,06,08,06,31,7.10
2008,06,08,06,32,12.20
2008,06,08,06,33,12.10
2008,06,08,06,34,6.60
2008,06,08,06,35,7.10
2008,06,08,06,36,6.80
2008,06,08,06,37,9.70
2008,06,08,06,38,9.30
2008,06,08,06,39,7.00
2008,06,08,06,40,8.60
2008,06,08,06,41,10.80
2008,06,08,06,42,5.90
2008,06,08,06,43,6.90
2008,06,08,06,44,4.90
2008,06,08,06,45,4.30
2008,06,08,06,46,6.70
2008,06,08,06,47,5.30
2008,06,08,06,48,5.40
2008,06,08,06,49,8.20
2008,06,08,06,50,8.60
2008,06,08,06,51,5.40
2008,06,08,06,52,6.40
2008,06,08,06,53,6.00
2008,06,08,06,54,5.10
2008,06,08,06,55,1.40
2008,06,08,06,56,4.40
2008,06,08,06,57,9.20
2008,06,08,06,58,5.50
2008,06,08,06,59,6.40
2008,06,08,07,00,4.70
2008,06,08,07,01,4.00
2008,06,08,07,02,2.50
2008,06,08,07,03,3.50
2008,06,08,07,04,6.30
2008,06,08,07,05,4.70
2008,06,08,07,06,2.00
2008,06,08,07,07,4.30
2008,06,08,07,08,3.10
2008,06,08,07,09,8.00
2008,06,08,07,10,4.40
2008,06,08,07,11,3.20
2008,06,08,07,12,4.30
2008,06,08,07,13,6.00
2008,06,08,07,14,5.20
2008,06,08,07,15,3.20
2008,06,08,07,16,5.60
2008,06,08,07,17,5.80
2008,06,08,07,18,9.00
2008,06,08,07,19,5.00
2008,06,08,07,20,4.00
2008,06,08,07,21,6.80
2008,06,08,07,22,11.30
2008,06,08,07,23,11.60
2008,06,08,07,24,6.40
2008,06,08,07,25,3.50
2008,06,08,07,26,5.30
2008,06,08,07,27,6.60
2008,06,08,07,28,6.50
2008,06,08,07,29,6.60
2008,06,08,07,30,6.40
2008,06,08,07,31,10.30
2008,06,08,07,32,9.80
2008,06,08,07,33,8.60
2008,06,08,07,34,5.70
2008,06,08,07,35,6.30
2008,06,08,07,36,4.40
2008,06,08,07,37,5.20
2008,06,08,07,38,5.90
2008,06,08,07,39,3.90
2008,06,08,07,40,3.60
2008,06,08,07,41,6.90
2008,06,08,07,42,7.80
2008,06,08,07,43,6.80
2008,06,08,07,44,6.50
2008,06,08,07,45,7.40
2008,06,08,07,46,4.80
2008,06,08,07,47,7.00
2008,06,08,07,48,5.60
2008,06,08,07,49,7.10
2008,06,08,07,50,6.90
2008,06,08,07,51,5.90
2008,06,08,07,52,7.30
2008,06,08,07,53,8.70
2008,06,08,07,54,5.90
2008,06,08,07,55,4.90
2008,06,08,07,56,7.70
2008,06,08,07,57,9.20
2008,06,08,07,58,7.00
2008,06,08,07,59,4.80
2008,06,08,08,00,5.10
2008,06,08,08,01,5.90
2008,06,08,08,02,5.50
2008,06,08,08,03,5.60
2008,06,08,08,04,6.50
2008,06,08,08,05,7.80
2008,06,08,08,06,7.50
2008,06,08,08,07,7.40
2008,06,08,08,08,7.80
2008,06,08,08,09,9.80
2008,06,08,08,10,6.10
2008,06,08,08,11,4.80
2008,06,08,08,12,9.50
2008,06,08,08,13,6.00
2008,06,08,08,14,8.00
2008,06,08,08,15,8.40
2008,06,08,08,16,11.40
2008,06,08,08,17,4.30
2008,06,08,08,18,10.50
2008,06,08,08,19,9.30
2008,06,08,08,20,7.60
2008,06,08,08,21,6.90
2008,06,08,08,22,6.00
2008,06,08,08,23,8.60
2008,06,08,08,24,8.20
2008,06,08,08,25,5.00
2008,06,08,08,26,9.00
2008,06,08,08,27,8.20
2008,06,08,08,28,7.20
2008,06,08,08,29,10.60
2008,06,08,08,30,8.00
2008,06,08,08,31,8.00
2008,06,08,08,32,11.00
2008,06,08,08,33,9.80
2008,06,08,08,34,8.00
2008,06,08,08,35,12.20
2008,06,08,08,36,7.20
2008,06,08,08,37,15.00
2008,06,08,08,38,7.60
2008,06,08,08,39,9.30
2008,06,08,08,40,10.10
2008,06,08,08,41,8.90
2008,06,08,08,42,9.40
2008,06,08,08,43,9.50
2008,06,08,08,44,8.10
2008,06,08,08,45,5.90
2008,06,08,08,46,10.20
2008,06,08,08,47,8.10
2008,06,08,08,48,8.70
2008,06,08,08,49,8.20
2008,06,08,08,50,10.70
2008,06,08,08,51,11.60
2008,06,08,08,52,8.90
2008,06,08,08,53,9.90
2008,06,08,08,54,11.30
2008,06,08,08,55,10.90
2008,06,08,08,56,7.90
2008,06,08,08,57,9.70
2008,06,08,08,58,8.10
2008,06,08,08,59,7.60
2008,06,08,09,00,7.50
2008,06,08,09,01,10.40
2008,06,08,09,02,11.40
2008,06,08,09,03,11.30
2008,06,08,09,04,8.50
2008,06,08,09,05,9.20
2008,06,08,09,06,9.30
2008,06,08,09,07,10.30
2008,06,08,09,08,10.40
2008,06,08,09,09,10.10
2008,06,08,09,10,10.40
2008,06,08,09,11,9.40
2008,06,08,09,12,7.70
2008,06,08,09,13,9.60
2008,06,08,09,14,8.40
2008,06,08,09,15,7.80
2008,06,08,09,16,8.10
2008,06,08,09,17,13.00
2008,06,08,09,18,10.60
2008,06,08,09,19,7.90
2008,06,08,09,20,13.30
2008,06,08,09,21,9.70
2008,06,08,09,22,8.60
2008,06,08,09,23,7.60
2008,06,08,09,24,7.60
2008,06,08,09,25,6.20
2008,06,08,09,26,11.70
2008,06,08,09,27,12.00
2008,06,08,09,28,10.30
2008,06,08,09,29,5.50
2008,06,08,09,30,7.60
2008,06,08,09,31,6.60
2008,06,08,09,32,7.80
2008,06,08,09,33,9.20
2008,06,08,09,34,8.60
2008,06,08,09,35,7.10
2008,06,08,09,36,11.50
2008,06,08,09,37,12.30
2008,06,08,09,38,14.40
2008,06,08,09,39,11.50
2008,06,08,09,40,10.80
2008,06,08,09,41,11.10
2008,06,08,09,42,10.40
2008,06,08,09,43,9.00
2008,06,08,09,44,11.90
2008,06,08,09,45,12.60
2008,06,08,09,46,6.70
2008,06,08,09,47,10.40
2008,06,08,09,48,12.50
2008,06,08,09,49,9.90
2008,06,08,09,50,11.40
2008,06,08,09,51,11.30
2008,06,08,09,52,8.60
2008,06,08,09,53,9.10
2008,06,08,09,54,11.60
2008,06,08,09,55,9.90
2008,06,08,09,56,8.80
2008,06,08,09,57,12.70
2008,06,08,09,58,13.20
2008,06,08,09,59,10.30
2008,06,08,10,00,11.50
2008,06,08,10,01,11.80
2008,06,08,10,02,12.80
2008,06,08,10,03,10.40
2008,06,08,10,04,10.20
2008,06,08,10,05,8.50
2008,06,08,10,06,10.40
2008,06,08,10,07,7.40
2008,06,08,10,08,9.00
2008,06,08,10,09,10.30
2008,06,08,10,10,10.90
2008,06,08,10,11,9.20
2008,06,08,10,12,9.20
2008,06,08,10,13,10.30
2008,06,08,10,14,10.00
2008,06,08,10,15,8.90
2008,06,08,10,16,11.20
2008,06,08,10,17,12.70
2008,06,08,10,18,9.70
2008,06,08,10,19,8.10
2008,06,08,10,20,11.60
2008,06,08,10,21,8.60
2008,06,08,10,22,9.20
2008,06,08,10,23,14.30
2008,06,08,10,24,9.50
2008,06,08,10,25,7.30
2008,06,08,10,26,8.00
2008,06,08,10,27,10.70
2008,06,08,10,28,10.10
2008,06,08,10,29,10.40
2008,06,08,10,30,9.20
2008,06,08,10,31,11.80
2008,06,08,10,32,10.60
2008,06,08,10,33,12.50
2008,06,08,10,34,7.70
2008,06,08,10,35,10.00
2008,06,08,10,36,11.90
2008,06,08,10,37,13.40
2008,06,08,10,38,11.70
2008,06,08,10,39,10.20
2008,06,08,10,40,7.60
2008,06,08,10,41,5.80
2008,06,08,10,42,12.60
2008,06,08,10,43,11.10
2008,06,08,10,44,11.90
2008,06,08,10,45,13.50
2008,06,08,10,46,14.20
2008,06,08,10,47,15.30
2008,06,08,10,48,9.80
2008,06,08,10,49,12.30
2008,06,08,10,50,14.90
2008,06,08,10,51,12.30
2008,06,08,10,52,12.70
2008,06,08,10,53,14.40
2008,06,08,10,54,14.50
2008,06,08,10,55,13.20
2008,06,08,10,56,15.50
2008,06,08,10,57,13.90
2008,06,08,10,58,12.20
2008,06,08,10,59,12.40
2008,06,08,11,00,12.80
2008,06,08,11,01,13.20
2008,06,08,11,02,15.10
2008,06,08,11,03,13.00
2008,06,08,11,04,17.00
2008,06,08,11,05,19.80
2008,06,08,11,06,19.60
2008,06,08,11,07,20.90
2008,06,08,11,08,21.30
2008,06,08,11,09,18.00
2008,06,08,11,10,18.10
2008,06,08,11,11,15.50
2008,06,08,11,12,19.20
2008,06,08,11,13,19.20
2008,06,08,11,14,19.10
2008,06,08,11,15,18.00
2008,06,08,11,16,18.10
2008,06,08,11,17,16.40
2008,06,08,11,18,16.80
2008,06,08,11,19,17.10
2008,06,08,11,20,18.90
2008,06,08,11,21,18.80
2008,06,08,11,22,20.80
2008,06,08,11,23,20.10
2008,06,08,11,24,20.10
2008,06,08,11,25,17.70
2008,06,08,11,26,13.50
2008,06,08,11,27,20.90
2008,06,08,11,28,18.80
2008,06,08,11,29,19.00
2008,06,08,11,30,17.40
2008,06,08,11,31,19.00
2008,06,08,11,32,13.10
2008,06,08,11,33,15.80
2008,06,08,11,34,16.30
2008,06,08,11,35,13.70
2008,06,08,11,36,16.60
2008,06,08,11,37,19.50
2008,06,08,11,38,20.90
2008,06,08,11,39,20.60
2008,06,08,11,40,15.40
2008,06,08,11,41,19.00
2008,06,08,11,42,18.10
2008,06,08,11,43,18.30
2008,06,08,11,44,15.60
2008,06,08,11,45,13.50
2008,06,08,11,46,11.10
2008,06,08,11,47,13.10
2008,06,08,11,48,12.90
2008,06,08,11,49,13.20
2008,06,08,11,50,14.70
2008,06,08,11,51,10.60
2008,06,08,11,52,10.90
2008,06,08,11,53,15.20
2008,06,08,11,54,14.40
2008,06,08,11,55,10.90
2008,06,08,11,56,15.30
2008,06,08,11,57,20.30
2008,06,08,11,58,18.60
2008,06,08,11,59,11.10
2008,06,08,12,00,7.60
2008,06,08,12,01,14.00
2008,06,08,12,02,10.70
2008,06,08,12,03,15.60
2008,06,08,12,04,10.60
2008,06,08,12,05,15.10
2008,06,08,12,06,10.10
2008,06,08,12,07,12.00
2008,06,08,12,08,14.10
2008,06,08,12,09,7.30
2008,06,08,12,10,13.30
2008,06,08,12,11,10.80
2008,06,08,12,12,11.40
2008,06,08,12,13,14.20
2008,06,08,12,14,15.90
2008,06,08,12,15,14.80
2008,06,08,12,16,12.60
2008,06,08,12,17,17.00
2008,06,08,12,18,16.50
2008,06,08,12,19,13.70
2008,06,08,12,20,14.50
2008,06,08,12,21,8.20
2008,06,08,12,22,9.10
2008,06,08,12,23,11.90
2008,06,08,12,24,12.20
2008,06,08,12,25,9.20
2008,06,08,12,26,7.80
2008,06,08,12,27,12.60
2008,06,08,12,28,12.50
2008,06,08,12,29,8.20
2008,06,08,12,30,10.10
2008,06,08,12,31,11.60
2008,06,08,12,32,10.60
2008,06,08,12,33,8.30
2008,06,08,12,34,10.30
2008,06,08,12,35,12.30
2008,06,08,12,36,6.20
2008,06,08,12,37,11.20
2008,06,08,12,38,6.40
2008,06,08,12,39,8.40
2008,06,08,12,40,9.60
2008,06,08,12,41,10.30
2008,06,08,12,42,10.80
2008,06,08,12,43,10.80
2008,06,08,12,44,9.70
2008,06,08,12,45,10.10
2008,06,08,12,46,8.60
2008,06,08,12,47,12.20
2008,06,08,12,48,8.10
2008,06,08,12,49,7.20
2008,06,08,12,50,8.80
2008,06,08,12,51,8.80
2008,06,08,12,52,4.30
2008,06,08,12,53,9.80
2008,06,08,12,54,8.50
2008,06,08,12,55,8.60
2008,06,08,12,56,8.10
2008,06,08,12,57,8.20
2008,06,08,12,58,7.10
2008,06,08,12,59,8.80
2008,06,08,13,00,9.10
2008,06,08,13,01,6.20
2008,06,08,13,02,14.30
2008,06,08,13,03,16.90
2008,06,08,13,04,18.10
2008,06,08,13,05,15.30
2008,06,08,13,06,15.10
2008,06,08,13,07,13.70
2008,06,08,13,08,13.70
2008,06,08,13,09,16.50
2008,06,08,13,10,13.30
2008,06,08,13,11,9.80
2008,06,08,13,12,12.70
2008,06,08,13,13,11.90
2008,06,08,13,14,8.60
2008,06,08,13,15,15.60
2008,06,08,13,16,7.80
2008,06,08,13,17,9.00
2008,06,08,13,18,10.50
2008,06,08,13,19,9.60
2008,06,08,13,20,10.70
2008,06,08,13,21,10.40
2008,06,08,13,22,9.20
2008,06,08,13,23,16.70
2008,06,08,13,24,12.70
2008,06,08,13,25,17.50
2008,06,08,13,26,21.90
2008,06,08,13,27,18.80
2008,06,08,13,28,20.20
2008,06,08,13,29,20.20
2008,06,08,13,30,16.00
2008,06,08,13,31,19.90
2008,06,08,13,32,17.50
2008,06,08,13,33,20.70
2008,06,08,13,34,23.80
2008,06,08,13,35,20.50
2008,06,08,13,36,17.60
2008,06,08,13,37,11.40
2008,06,08,13,38,7.20
2008,06,08,13,39,12.60
2008,06,08,13,40,17.90
2008,06,08,13,41,16.30
2008,06,08,13,42,12.00
2008,06,08,13,43,11.70
2008,06,08,13,44,10.90
2008,06,08,13,45,15.90
2008,06,08,13,46,13.90
2008,06,08,13,47,15.50
2008,06,08,13,48,19.50
2008,06,08,13,49,11.40
2008,06,08,13,50,10.50
2008,06,08,13,51,15.40
2008,06,08,13,52,14.20
2008,06,08,13,53,16.00
2008,06,08,13,54,16.10
2008,06,08,13,55,16.80
2008,06,08,13,56,15.60
2008,06,08,13,57,17.40
2008,06,08,13,58,16.60
2008,06,08,13,59,15.70
2008,06,08,14,00,12.90
2008,06,08,14,01,16.90
2008,06,08,14,02,11.40
2008,06,08,14,03,10.60
2008,06,08,14,04,13.60
2008,06,08,14,05,10.70
2008,06,08,14,06,11.20
2008,06,08,14,07,12.90
2008,06,08,14,08,15.80
2008,06,08,14,09,17.30
2008,06,08,14,10,17.80
2008,06,08,14,11,13.30
2008,06,08,14,12,15.70
2008,06,08,14,13,12.90
2008,06,08,14,14,15.90
2008,06,08,14,15,13.00
2008,06,08,14,16,17.70
2008,06,08,14,17,19.20
2008,06,08,14,18,19.70
2008,06,08,14,19,18.90
2008,06,08,14,20,19.50
2008,06,08,14,21,21.20
2008,06,08,14,22,20.70
2008,06,08,14,23,17.30
2008,06,08,14,24,19.40
2008,06,08,14,25,17.80
2008,06,08,14,26,13.00
2008,06,08,14,27,16.40
2008,06,08,14,28,11.30
2008,06,08,14,29,15.60
2008,06,08,14,30,10.80
2008,06,08,14,31,7.00
2008,06,08,14,32,6.50
2008,06,08,14,33,7.50
2008,06,08,14,34,9.80
2008,06,08,14,35,8.50
2008,06,08,14,36,9.80
2008,06,08,14,37,13.30
2008,06,08,14,38,13.40
2008,06,08,14,39,12.00
2008,06,08,14,40,14.20
2008,06,08,14,41,17.30
2008,06,08,14,42,8.20
2008,06,08,14,43,14.80
2008,06,08,14,44,11.40
2008,06,08,14,45,10.80
2008,06,08,14,46,12.70
2008,06,08,14,47,8.00
2008,06,08,14,48,10.90
2008,06,08,14,49,8.70
2008,06,08,14,50,8.90
2008,06,08,14,51,13.40
2008,06,08,14,52,15.20
2008,06,08,14,53,14.10
2008,06,08,14,54,17.30
2008,06,08,14,55,13.30
2008,06,08,14,56,13.20
2008,06,08,14,57,14.70
2008,06,08,14,58,18.20
2008,06,08,14,59,12.70
2008,06,08,15,00,8.50
2008,06,08,15,01,11.10
2008,06,08,15,02,11.70
2008,06,08,15,03,9.90
2008,06,08,15,04,10.10
2008,06,08,15,05,8.00
2008,06,08,15,06,12.20
2008,06,08,15,07,9.80
2008,06,08,15,08,9.80
2008,06,08,15,09,10.20
2008,06,08,15,10,9.20
2008,06,08,15,11,11.30
2008,06,08,15,12,8.80
2008,06,08,15,13,8.40
2008,06,08,15,14,15.60
2008,06,08,15,15,13.50
2008,06,08,15,16,16.90
2008,06,08,15,17,13.50
2008,06,08,15,18,11.50
2008,06,08,15,19,10.10
2008,06,08,15,20,11.00
2008,06,08,15,21,12.50
2008,06,08,15,22,10.50
2008,06,08,15,23,9.40
2008,06,08,15,24,11.90
2008,06,08,15,25,10.00
2008,06,08,15,26,10.30
2008,06,08,15,27,9.70
2008,06,08,15,28,7.10
2008,06,08,15,29,5.10
2008,06,08,15,30,5.50
2008,06,08,15,31,12.60
2008,06,08,15,32,5.90
2008,06,08,15,33,4.10
2008,06,08,15,34,7.90
2008,06,08,15,35,10.10
2008,06,08,15,36,6.80
2008,06,08,15,37,9.90
2008,06,08,15,38,8.80
2008,06,08,15,39,8.10
2008,06,08,15,40,8.10
2008,06,08,15,41,8.80
2008,06,08,15,42,8.40
2008,06,08,15,43,7.20
2008,06,08,15,44,4.50
2008,06,08,15,45,8.40
2008,06,08,15,46,9.20
2008,06,08,15,47,9.70
2008,06,08,15,48,6.20
2008,06,08,15,49,6.90
2008,06,08,15,50,7.50
2008,06,08,15,51,9.60
2008,06,08,15,52,10.40
2008,06,08,15,53,8.20
2008,06,08,15,54,9.00
2008,06,08,15,55,8.70
2008,06,08,15,56,7.40
2008,06,08,15,57,6.90
2008,06,08,15,58,8.50
2008,06,08,15,59,8.20
2008,06,08,16,00,6.10
2008,06,08,16,01,9.60
2008,06,08,16,02,5.70
2008,06,08,16,03,10.90
2008,06,08,16,04,7.40
2008,06,08,16,05,11.20
2008,06,08,16,06,7.80
2008,06,08,16,07,7.10
2008,06,08,16,08,8.60
2008,06,08,16,09,7.10
2008,06,08,16,10,11.10
2008,06,08,16,11,6.90
2008,06,08,16,12,5.30
2008,06,08,16,13,8.50
2008,06,08,16,14,9.30
2008,06,08,16,15,6.00
2008,06,08,16,16,8.00
2008,06,08,16,17,8.30
2008,06,08,16,18,8.10
2008,06,08,16,19,6.70
2008,06,08,16,20,6.00
2008,06,08,16,21,13.50
2008,06,08,16,22,7.50
2008,06,08,16,23,7.50
2008,06,08,16,24,6.30
2008,06,08,16,25,9.50
2008,06,08,16,26,8.40
2008,06,08,16,27,7.20
2008,06,08,16,28,8.60
2008,06,08,16,29,8.10
2008,06,08,16,30,10.00
2008,06,08,16,31,9.80
2008,06,08,16,32,8.20
2008,06,08,16,33,8.00
2008,06,08,16,34,7.90
2008,06,08,16,35,8.90
2008,06,08,16,36,10.10
2008,06,08,16,37,8.40
2008,06,08,16,38,5.30
2008,06,08,16,39,9.70
2008,06,08,16,40,8.80
2008,06,08,16,41,8.10
2008,06,08,16,42,10.40
2008,06,08,16,43,7.80
2008,06,08,16,44,11.60
2008,06,08,16,45,8.50
2008,06,08,16,46,9.10
2008,06,08,16,47,7.50
2008,06,08,16,48,7.80
2008,06,08,16,49,6.00
2008,06,08,16,50,6.90
2008,06,08,16,51,5.80
2008,06,08,16,52,9.30
2008,06,08,16,53,6.70
2008,06,08,16,54,7.90
2008,06,08,16,55,7.50
2008,06,08,16,56,8.10
2008,06,08,16,57,6.60
2008,06,08,16,58,8.10
2008,06,08,16,59,6.30
2008,06,08,17,00,6.50
2008,06,08,17,01,7.20
2008,06,08,17,02,10.30
2008,06,08,17,03,7.40
2008,06,08,17,04,8.50
2008,06,08,17,05,8.30
2008,06,08,17,06,6.00
2008,06,08,17,07,12.20
2008,06,08,17,08,7.30
2008,06,08,17,09,10.20
2008,06,08,17,10,11.70
2008,06,08,17,11,6.70
2008,06,08,17,12,10.50
2008,06,08,17,13,8.30
2008,06,08,17,14,8.30
2008,06,08,17,15,9.00
2008,06,08,17,16,8.30
2008,06,08,17,17,6.40
2008,06,08,17,18,8.30
2008,06,08,17,19,5.50
2008,06,08,17,20,8.00
2008,06,08,17,21,5.80
2008,06,08,17,22,11.60
2008,06,08,17,23,6.50
2008,06,08,17,24,6.80
2008,06,08,17,25,7.50
2008,06,08,17,26,7.10
2008,06,08,17,27,8.10
2008,06,08,17,28,5.60
2008,06,08,17,29,8.00
2008,06,08,17,30,8.00
2008,06,08,17,31,7.20
2008,06,08,17,32,6.10
2008,06,08,17,33,7.30
2008,06,08,17,34,9.40
2008,06,08,17,35,7.80
2008,06,08,17,36,8.10
2008,06,08,17,37,10.80
2008,06,08,17,38,5.00
2008,06,08,17,39,7.60
2008,06,08,17,40,10.00
2008,06,08,17,41,7.70
2008,06,08,17,42,7.10
2008,06,08,17,43,7.10